When you browse on this site, cookies collect data to enhance your experience and personalize the content and advertising you see.
Visit our Privacy Policy to learn more. By continuing to use the site, you agree to this use of cookies and data.
  • In Lithuania
  • List of Countries
  • For 7 days
  • Water Temperature
  • Satellite Maps
  • Weather Map
  • Weather Widgets
  • user-avatar
    Login

    Hourly Weather Komissarovka

    Today, 24 January, Thursday

    Time Temperature Precipitation Wind Pressure Humidity
    00:00 -21°C° 0 mm 3 mps 745 mmHg 97%
    01:00 -19°C° 0.2 mm 3 mps 745 mmHg 97%
    02:00 -19°C° 0.2 mm 4 mps 744 mmHg 96%
    03:00 -19°C° 0.2 mm 4 mps 744 mmHg 96%
    04:00 -19°C° 0.3 mm 4 mps 743 mmHg 96%
    05:00 -18°C° 0.3 mm 4 mps 742 mmHg 96%
    06:00 -19°C° 0.3 mm 5 mps 742 mmHg 96%
    07:00 -18°C° 0.2 mm 4 mps 741 mmHg 95%
    08:00 -18°C° 0.2 mm 4 mps 741 mmHg 95%
    09:00 -18°C° 0.2 mm 4 mps 740 mmHg 95%
    10:00 -17°C° 0.1 mm 4 mps 740 mmHg 95%
    11:00 -16°C° 0.1 mm 3 mps 740 mmHg 94%
    12:00 -15°C° 0.1 mm 3 mps 740 mmHg 94%
    13:00 -15°C° 0 mm 3 mps 740 mmHg 94%
    14:00 -15°C° 0 mm 3 mps 740 mmHg 94%
    15:00 -15°C° 0 mm 3 mps 740 mmHg 95%
    16:00 -17°C° 0 mm 3 mps 741 mmHg 96%
    17:00 -18°C° 0 mm 3 mps 741 mmHg 96%
    18:00 -19°C° 0 mm 3 mps 741 mmHg 97%
    19:00 -21°C° 0 mm 3 mps 742 mmHg 97%
    20:00 -20°C° 0 mm 2 mps 742 mmHg 97%
    21:00 -20°C° 0 mm 2 mps 743 mmHg 98%
    22:00 -20°C° 0 mm 2 mps 743 mmHg 98%
    23:00 -20°C° 0 mm 2 mps 744 mmHg 98%

    Tomorrow, 25 January, Friday

    Time Temperature Precipitation Wind Pressure Humidity
    00:00 -21°C° 0 mm 3 mps 744 mmHg 98%
    01:00 -21°C° 0 mm 3 mps 745 mmHg 98%
    02:00 -21°C° 0 mm 3 mps 745 mmHg 98%
    03:00 -19°C° 0 mm 3 mps 746 mmHg 98%
    04:00 -21°C° 0 mm 3 mps 746 mmHg 98%
    05:00 -22°C° 0 mm 3 mps 746 mmHg 99%
    06:00 -22°C° 0 mm 3 mps 747 mmHg 99%
    07:00 -23°C° 0 mm 3 mps 747 mmHg 99%
    08:00 -23°C° 0 mm 3 mps 748 mmHg 99%
    09:00 -23°C° 0 mm 2 mps 748 mmHg 99%
    10:00 -21°C° 0 mm 2 mps 749 mmHg 98%
    11:00 -20°C° 0 mm 2 mps 749 mmHg 97%
    12:00 -19°C° 0 mm 2 mps 750 mmHg 95%
    13:00 -18°C° 0 mm 2 mps 750 mmHg 95%
    14:00 -18°C° 0 mm 2 mps 750 mmHg 95%
    15:00 -18°C° 0 mm 2 mps 750 mmHg 94%
    16:00 -19°C° 0 mm 2 mps 750 mmHg 94%
    17:00 -20°C° 0 mm 2 mps 751 mmHg 95%
    18:00 -21°C° 0 mm 2 mps 751 mmHg 95%
    19:00 -21°C° 0 mm 2 mps 751 mmHg 95%
    20:00 -24°C° 0 mm 3 mps 751 mmHg 96%
    21:00 -24°C° 0 mm 3 mps 751 mmHg 96%
    22:00 -24°C° 0 mm 3 mps 751 mmHg 96%
    23:00 -24°C° 0 mm 3 mps 751 mmHg 96%

    Day after tomorrow, 26 January, Saturday

    Time Temperature Precipitation Wind Pressure Humidity
    00:00 -24°C° 0 mm 3 mps 751 mmHg 95%
    01:00 -24°C° 0 mm 3 mps 750 mmHg 95%
    02:00 -25°C° 0 mm 3 mps 750 mmHg 94%
    03:00 -25°C° 0 mm 3 mps 749 mmHg 93%
    04:00 -25°C° 0 mm 4 mps 749 mmHg 91%
    05:00 -25°C° 0 mm 4 mps 748 mmHg 90%
    06:00 -25°C° 0 mm 5 mps 747 mmHg 88%
    07:00 -24°C° 0 mm 5 mps 747 mmHg 89%
    08:00 -22°C° 0 mm 5 mps 746 mmHg 90%
    09:00 -21°C° 0 mm 5 mps 746 mmHg 91%
    10:00 -20°C° 0.5 mm 5 mps 745 mmHg 92%
    11:00 -20°C° 0.5 mm 6 mps 744 mmHg 94%
    12:00 -18°C° 0.5 mm 6 mps 744 mmHg 95%
    13:00 -17°C° 0.4 mm 6 mps 743 mmHg 94%
    14:00 -16°C° 0.4 mm 6 mps 742 mmHg 94%
    15:00 -15°C° 0.4 mm 7 mps 741 mmHg 93%
    16:00 -14°C° 0.2 mm 7 mps 741 mmHg 93%
    17:00 -13°C° 0.2 mm 7 mps 740 mmHg 93%
    18:00 -13°C° 0.2 mm 7 mps 739 mmHg 93%
    19:00 -13°C° 0.4 mm 7 mps 739 mmHg 93%
    20:00 -12°C° 0.4 mm 7 mps 738 mmHg 93%
    21:00 -12°C° 0.4 mm 7 mps 738 mmHg 93%
    22:00 -11°C° 0.5 mm 8 mps 737 mmHg 93%
    23:00 -11°C° 0.5 mm 8 mps 736 mmHg 93%

    27 January, Sunday

    Time Temperature Precipitation Wind Pressure Humidity
    00:00 -10°C° 0.5 mm 8 mps 736 mmHg 93%
    01:00 -10°C° 0.5 mm 8 mps 735 mmHg 92%
    02:00 -8°C° 0.5 mm 8 mps 734 mmHg 92%
    03:00 -7°C° 0.5 mm 8 mps 734 mmHg 92%
    04:00 -7°C° 0.3 mm 7 mps 733 mmHg 92%
    05:00 -6°C° 0.3 mm 7 mps 733 mmHg 92%
    06:00 -6°C° 0.3 mm 7 mps 732 mmHg 92%
    07:00 -6°C° 0.4 mm 7 mps 732 mmHg 92%
    08:00 -6°C° 0.4 mm 7 mps 731 mmHg 92%
    09:00 -6°C° 0.4 mm 7 mps 731 mmHg 93%
    10:00 -6°C° 0.6 mm 7 mps 731 mmHg 93%
    11:00 -6°C° 0.6 mm 7 mps 730 mmHg 93%
    12:00 -7°C° 0.6 mm 7 mps 730 mmHg 93%
    13:00 -6°C° 0.6 mm 6 mps 730 mmHg 94%
    14:00 -6°C° 0.6 mm 5 mps 729 mmHg 95%
    15:00 -5°C° 0.6 mm 4 mps 729 mmHg 95%
    16:00 -8°C° 0.3 mm 5 mps 729 mmHg 94%
    17:00 -10°C° 0.3 mm 6 mps 729 mmHg 92%
    18:00 -12°C° 0.3 mm 6 mps 730 mmHg 91%
    19:00 -14°C° 0 mm 6 mps 730 mmHg 91%
    20:00 -15°C° 0 mm 6 mps 730 mmHg 91%
    21:00 -16°C° 0 mm 6 mps 731 mmHg 91%
    22:00 -18°C° 0 mm 6 mps 731 mmHg 91%
    23:00 -20°C° 0 mm 6 mps 732 mmHg 92%

    28 January, Monday

    Time Temperature Precipitation Wind Pressure Humidity
    00:00 -21°C° 0 mm 5 mps 732 mmHg 93%
    01:00 -22°C° 0 mm 5 mps 732 mmHg 93%
    02:00 -24°C° 0 mm 5 mps 733 mmHg 94%
    03:00 -25°C° 0 mm 5 mps 733 mmHg 94%
    04:00 -25°C° 0 mm 5 mps 734 mmHg 95%
    05:00 -25°C° 0 mm 5 mps 734 mmHg 95%
    06:00 -26°C° 0 mm 5 mps 735 mmHg 95%
    07:00 -26°C° 0 mm 5 mps 735 mmHg 95%
    08:00 -26°C° 0 mm 5 mps 736 mmHg 95%
    09:00 -26°C° 0 mm 5 mps 736 mmHg 95%
    10:00 -24°C° 0 mm 4 mps 737 mmHg 95%
    11:00 -23°C° 0 mm 4 mps 737 mmHg 95%
    12:00 -22°C° 0 mm 4 mps 738 mmHg 94%
    13:00 -20°C° 0 mm 4 mps 738 mmHg 94%
    14:00 -19°C° 0 mm 3 mps 738 mmHg 94%
    15:00 -18°C° 0 mm 3 mps 739 mmHg 94%
    16:00 -19°C° 0 mm 3 mps 739 mmHg 94%
    17:00 -21°C° 0 mm 3 mps 739 mmHg 95%
    18:00 -20°C° 0 mm 2 mps 740 mmHg 95%
    19:00 -20°C° 0 mm 2 mps 740 mmHg 94%
    20:00 -20°C° 0 mm 2 mps 740 mmHg 93%
    21:00 -20°C° 0 mm 2 mps 740 mmHg 92%
    22:00 -20°C° 0 mm 2 mps 740 mmHg 89%
    23:00 -20°C° 0 mm 2 mps 740 mmHg 87%

    29 January, Tuesday

    Time Temperature Precipitation Wind Pressure Humidity
    00:00 -19°C° 0 mm 2 mps 741 mmHg 85%
    01:00 -19°C° 0 mm 2 mps 741 mmHg 85%
    02:00 -19°C° 0 mm 3 mps 741 mmHg 86%
    03:00 -19°C° 0 mm 3 mps 741 mmHg 86%
    04:00 -18°C° 0 mm 3 mps 741 mmHg 89%
    05:00 -16°C° 0 mm 3 mps 741 mmHg 91%
    06:00 -15°C° 0 mm 3 mps 741 mmHg 94%
    07:00 -15°C° 0 mm 3 mps 741 mmHg 94%
    08:00 -15°C° 0 mm 4 mps 741 mmHg 95%
    09:00 -15°C° 0 mm 4 mps 741 mmHg 95%
    10:00 -12°C° 0 mm 4 mps 741 mmHg 95%
    11:00 -10°C° 0 mm 4 mps 741 mmHg 95%
    12:00 -10°C° 0 mm 5 mps 741 mmHg 95%
    13:00 -10°C° 0 mm 5 mps 741 mmHg 94%
    14:00 -8°C° 0 mm 5 mps 742 mmHg 93%
    15:00 -8°C° 0 mm 5 mps 742 mmHg 93%
    16:00 -10°C° 0 mm 5 mps 742 mmHg 92%
    17:00 -10°C° 0 mm 4 mps 742 mmHg 92%
    18:00 -11°C° 0 mm 4 mps 742 mmHg 92%
    19:00 -11°C° 0 mm 4 mps 742 mmHg 91%
    20:00 -11°C° 0 mm 4 mps 742 mmHg 90%
    21:00 -11°C° 0 mm 4 mps 742 mmHg 89%
    22:00 -11°C° 0 mm 4 mps 742 mmHg 88%
    23:00 -12°C° 0 mm 5 mps 742 mmHg 87%
    Show more